This is the latest recevied weather packets stored in our database for station/object SQ6RR-11. If no packets are shown the sender has not sent any weather packets the latest 1 day(s).
| Time | Temp. | Humidity | Pressure | Rain* | Wind** | Luminosity | Snow |
|---|---|---|---|---|---|---|---|
| 1777989997 | 27.22° C | 26% | 1007.8 hPa | 0 mm | 0 m/s | - | - |
| 1777989722 | 26.67° C | 25% | 1007.8 hPa | 0 mm | 0 m/s | - | - |
| 1777989460 | 26.67° C | 26% | 1007.8 hPa | 0 mm | 0 m/s | - | - |
| 1777989200 | 27.22° C | 27% | 1007.9 hPa | 0 mm | 0 m/s | - | - |
| 1777988937 | 26.67° C | 28% | 1008 hPa | 0 mm | 0 m/s | - | - |
| 1777988685 | 26.67° C | 29% | 1008 hPa | 0 mm | 0 m/s | - | - |
| 1777988399 | 26.11° C | 30% | 1008 hPa | 0 mm | 0 m/s | - | - |
| 1777988123 | 26.11° C | 33% | 1008 hPa | 0 mm | 0 m/s | - | - |
| 1777987843 | 25° C | 33% | 1008.1 hPa | 0 mm | 0 m/s | - | - |
| 1777987554 | 24.44° C | 34% | 1008.1 hPa | 0 mm | 0 m/s | - | - |
| 1777987282 | 25° C | 33% | 1008.1 hPa | 0 mm | 0 m/s | - | - |
| 1777987009 | 24.44° C | 34% | 1008.1 hPa | 0 mm | 0 m/s | - | - |
| 1777986741 | 23.89° C | 33% | 1008.1 hPa | 0 mm | 0 m/s | - | - |
| 1777986476 | 23.89° C | 31% | 1008.1 hPa | 0 mm | 0 m/s | - | - |
| 1777986196 | 25° C | 33% | 1008.2 hPa | 0 mm | 0 m/s | - | - |
| 1777985926 | 24.44° C | 33% | 1008.2 hPa | 0 mm | 0 m/s | - | - |
| 1777985680 | 23.89° C | 33% | 1008.2 hPa | 0 mm | 0 m/s | - | - |
| 1777985397 | 23.89° C | 32% | 1008.2 hPa | 0 mm | 0 m/s | - | - |
| 1777985124 | 23.33° C | 31% | 1008.2 hPa | 0 mm | 0 m/s | - | - |
| 1777984857 | 23.89° C | 31% | 1008.2 hPa | 0 mm | 0 m/s | - | - |
| 1777984597 | 23.89° C | 31% | 1008.2 hPa | 0 mm | 0 m/s | - | - |
| 1777984322 | 24.44° C | 32% | 1008.3 hPa | 0 mm | 0 m/s | - | - |
| 1777984044 | 24.44° C | 30% | 1008.1 hPa | 0 mm | 0 m/s | - | - |
| 1777983757 | 25° C | 30% | 1008.2 hPa | 0 mm | 0 m/s | - | - |
| 1777983497 | 24.44° C | 30% | 1008.3 hPa | 0 mm | 0 m/s | - | - |
* Rain latest hour (hover to see other rain measurements)
** Current wind speed in m/s (hover to see current wind gust speed)